Volver al catálogo

QIANFAN-221

ActivoComunicacionesPO
NORAD 69850·PAYLOAD·🇨🇳 China

Lanzado Jul 5, 2026 desde Wenchang Space Launch Site

Loading…

Próximos Pases (próximas 24 horas)

TLE

ActualizadoSource: Space-Track

Época: Sep 14, 2026, 21:13 UTC

1 69850U 26155C   26257.88464057 -.01876514  00000-0 -20283+1 0  9990
2 69850  89.0071  54.0773 0033544  28.7755 331.5252 13.77413832 10083

Sigue QIANFAN-221 en tiempo real con AllMySat

Download on the App Store